Location: Winnipeg
(49.8830°N, 97.1670°W)
Time: 03:29:36
(UTC-06:00)

ISS - Pass Details

Date: 26 January 2021
Orbit: 417 x 422 km, 51.6° (Epoch: 07 March)

Event Time Altitude Azimuth Distance (km) Brightness Sun altitude
Rises 17:55:04 0° 251° (WSW) 2,367 2.8 -6.9°
Reaches altitude 10° 17:57:09 10° 251° (WSW) 1,505 0.9 -7.2°
Maximum altitude 18:00:33 88° 160° (SSE) 428 -3.7 -7.7°
Enters shadow 18:03:47 11° 74° (ENE) 1,443 -1.7 -8.2°
